This is the latest recevied weather packets stored in our database for station/object KO4IDC-13. If no packets are shown the sender has not sent any weather packets the latest 10 day(s).
| Time | Temp. | Humidity | Pressure | Rain* | Wind** | Luminosity | Snow |
|---|---|---|---|---|---|---|---|
| 1778190550 | 18.33° C | 36% | 1017.7 hPa | 0 mm | - | 303 W/m² | - |
| 1778190248 | 18.89° C | 35% | 1017.6 hPa | 0 mm | - | 315 W/m² | - |
| 1778189943 | 18.89° C | 33% | 1017.6 hPa | 0 mm | - | 330 W/m² | - |
| 1778189639 | 18.89° C | 34% | 1017.7 hPa | 0 mm | - | 343 W/m² | - |
| 1778189336 | 18.89° C | 33% | 1017.5 hPa | 0 mm | - | 356 W/m² | - |
| 1778189032 | 19.44° C | 34% | 1017.3 hPa | 0 mm | - | 369 W/m² | - |
| 1778188729 | 18.89° C | 35% | 1017.5 hPa | 0 mm | - | 383 W/m² | - |
| 1778188425 | 18.89° C | 33% | 1017.7 hPa | 0 mm | - | 396 W/m² | - |
| 1778188122 | 18.89° C | 35% | 1017.3 hPa | 0 mm | - | 410 W/m² | - |
| 1778187819 | 18.89° C | 33% | 1017.4 hPa | 0 mm | - | 430 W/m² | - |
| 1778187516 | 19.44° C | 33% | 1017.7 hPa | 0 mm | - | 439 W/m² | - |
| 1778187213 | 19.44° C | 34% | 1017.6 hPa | 0 mm | - | 450 W/m² | - |
| 1778186909 | 18.89° C | 31% | 1017.6 hPa | 0 mm | - | 463 W/m² | - |
| 1778186606 | 18.33° C | 34% | 1017.7 hPa | 0 mm | - | 477 W/m² | - |
| 1778186304 | 18.89° C | 33% | 1017.7 hPa | 0 mm | - | 494 W/m² | - |
| 1778186002 | 18.89° C | 34% | 1017.8 hPa | 0 mm | - | 501 W/m² | - |
| 1778185698 | 18.89° C | 35% | 1017.8 hPa | 0 mm | - | 516 W/m² | - |
| 1778185394 | 18.33° C | 35% | 1017.8 hPa | 0 mm | - | 526 W/m² | - |
| 1778185089 | 19.44° C | 36% | 1018 hPa | 0 mm | - | 539 W/m² | - |
| 1778184786 | 19.44° C | 37% | 1018 hPa | 0 mm | - | 550 W/m² | - |
| 1778184482 | 18.33° C | 33% | 1017.8 hPa | 0 mm | - | 562 W/m² | - |
| 1778184178 | 18.33° C | 35% | 1018 hPa | 0 mm | - | 571 W/m² | - |
| 1778183874 | 18.33° C | 32% | 1018.1 hPa | 0 mm | - | 582 W/m² | - |
| 1778183572 | 18.33° C | 33% | 1018.2 hPa | 0 mm | - | 594 W/m² | - |
| 1778183269 | 17.78° C | 35% | 1018.2 hPa | 0 mm | - | 604 W/m² | - |
* Rain latest hour (hover to see other rain measurements)
** Current wind speed in m/s (hover to see current wind gust speed)